Location: Niedergestelen
(46.3129°N, 7.7822°E)
Time: 16:29:57
(UTC+00:00)

Cosmos 1933 Rocket - Visible Passes

Search period start: 16 April 2021 00:00
Search period end: 26 April 2021 00:00
Orbit: 607 x 630 km, 82.5° (Epoch: 15 April)

Date Brightness Start Highest point End Pass type
(mag) Time Alt. Az. Time Alt. Az. Time Alt. Az.
16 Apr 6.0 01:02:26 10° NNW 01:03:26 15° NW 01:03:26 15° NW visible
16 Apr 5.6 23:41:16 10° N 23:43:18 25° N 23:43:18 25° N visible
17 Apr 6.3 22:22:55 10° NE 22:23:10 10° NE 22:23:10 10° NE visible
17 Apr 5.5 23:58:20 10° N 00:00:18 26° NNW 00:00:18 26° NNW visible
18 Apr 6.0 22:38:33 10° NNE 22:40:11 16° NE 22:40:11 16° NE visible
19 Apr 5.7 00:15:36 10° NNW 00:17:19 22° NNW 00:17:19 22° NNW visible
19 Apr 5.6 22:55:05 10° N 22:57:12 23° NNE 22:57:12 23° NNE visible
20 Apr 5.9 00:33:07 10° NNW 00:34:20 16° NW 00:34:20 16° NW visible
20 Apr 5.4 23:11:55 10° N 23:14:14 29° NNE 23:14:14 29° NNE visible
21 Apr 6.2 00:51:09 10° NW 00:51:22 11° NW 00:51:22 11° NW visible
21 Apr 6.2 21:53:27 10° NE 21:54:08 11° NE 21:54:08 11° NE visible
21 Apr 5.3 23:28:59 10° N 23:31:16 30° NNW 23:31:16 30° NNW visible
22 Apr 5.8 22:09:10 10° NNE 22:11:11 17° NE 22:11:11 17° NE visible
22 Apr 5.5 23:46:16 10° NNW 23:48:19 25° NW 23:48:19 25° NW visible
23 Apr 5.3 22:25:43 10° N 22:28:14 26° NE 22:28:14 26° NE visible
24 Apr 5.8 00:03:48 10° NNW 00:05:22 18° NW 00:05:22 18° NW visible
24 Apr 5.0 22:42:34 10° N 22:45:18 35° NNE 22:45:18 35° NNE visible
25 Apr 6.2 00:21:53 10° NW 00:22:26 12° WNW 00:22:26 12° WNW visible
25 Apr 6.0 21:23:59 10° NE 21:25:14 12° ENE 21:25:14 12° ENE visible
25 Apr 4.9 22:59:38 10° NNW 23:02:22 38° NNW 23:02:22 38° NNW visible
